www.pogodaiklimat.ru

Погода и климат >> Архив погоды >> Мексика >> Culiacan


ПОГОДА в Culiacan

  • Прогноз погоды в Culiacan
  • Монитор погоды в Culiacan
  • Климат города

АРХИВ ПОГОДЫ в Culiacan

Время (UTC), дата Ветер
(напр.,м/с)
 
Видим.   Явления Облачность Т
(С)
Тd
(С)
f
(%)
Тe
(С)
Тes
(С)
Комфортность P
(гПа)
Po
(гПа)
Тmin
(С)
Tmax
(С)
R
(мм)
R24
(мм)
S
(см)
15 8.08 В 1 16 км ясно +30.6 +23.5 66 +41 +48 опасность
перегрева
1014.1 1009.7
18 8.08 ЮВ 1 16 км ясно +35.4 +21.8 45 +43 +67 опасность
перегрева
1014.9 1010.5 +25.0 +37.0
21 8.08 ЮЗ 1 16 км ясно +35.8 +22.8 47 +45 +66 опасность
перегрева
1013.8 1009.4
00 9.08 ЮЗ 1 16 км ясно +33.2 +21.8 51 +41 +45 опасность
перегрева
1012.8 1008.5 +25.8 +37.8
03 9.08 З 1 16 км 8/0 2000 м
[As op]
+30.5 +25 +25 комфорт 1015.0 1010.7
06 9.08 В 1 16 км 8/0 2000 м
[As op]
+27.2 +25.9 93 +41 +41 опасность
перегрева
1015.4 1011.1 +25.5 +37.8
09 9.08 СВ 1 16 км 8/0 2000 м
[As op]
+27.4 +24.3 83 +38 +38 очень
душно
1014.8 1010.4
12 9.08 В 1 16 км 5/0 2000 м
[As op]
+25.0 +24.2 95 +34 +34 очень
душно
1015.3 1010.9 +24.8 +37.8
15 9.08 С 1 16 км ясно +32.0 +22.9 59 +42 +49 опасность
перегрева
1016.6 1012.2
18 9.08 СЗ 1 16 км 5/5 1200 м
[Cu Sc]
+35.8 +21.0 42 +43 +54 опасность
перегрева
1016.1 1011.7 +24.5 +36.0
21 9.08 З 2 16 км 8/8 1200 м
[Cu Sc]
+34.2 +23.3 53 +45 +48 опасность
перегрева
1013.9 1009.6
00 10.08 ЮЗ 2 16 км 8/0 2000 м
[As op]
+33.4 +22.7 54 +43 +44 опасность
перегрева
1013.6 1009.2 +24.5 +36.3
03 10.08 ЮЗ 1 16 км 8/0 2000 м
[As op]
+29.0 +24.8 78 +41 +41 опасность
перегрева
1015.2 1010.8
06 10.08 В 2 16 км {морось} 8/0 2000 м
[As op]
+26.5 +25.8 96 +39 +39 очень
душно
1016.8 1012.4 3
09 10.08 С 1 16 км 8/0 2000 м
[As op]
+25.5 +22.9 86 +34 +34 очень
душно
1015.1 1010.8
12 10.08 С 1 16 км 8/0 2000 м
[As op]
+25.0 +23.6 92 +34 +34 очень
душно
1014.6 1010.2 +24.7 +36.3
15 10.08 ЮЗ 1 16 км 5/0 1500 м
[Ac und]
+28.2 +23.8 77 +39 +43 очень
душно
1016.3 1011.8
18 10.08 В 1 16 км ясно +35.1 +22.0 47 +44 +67 опасность
перегрева
1015.9 1011.5 +24.0 +36.0
21 10.08 Ю 2 16 км дождь {морось, туман} 8/0 1000 м
[As op]
+27.7 +26.2 92 +42 +48 опасность
перегрева
1015.0 1010.6 12
00 11.08 СЗ 2 16 км 8/0 1500 м
[Ac und]
+27.7 +24.0 80 +38 +40 очень
душно
1013.3 1008.9 +24.0 +36.0
03 11.08 СЗ 1 16 км 8/0 1500 м
[Ac und]
+26.1 +23.2 84 +35 +35 очень
душно
1015.5 1011.1
06 11.08 С 1 16 км 10/0 1500 м
[Ac und]
+25.7 +25.2 97 +37 +37 очень
душно
1016.9 1012.5 +24.0 +36.0
09 11.08 Ю 1 16 км 10/0 1500 м
[Ac und]
+25.1 +24.7 98 +35 +35 очень
душно
1015.2 1010.8
12 11.08 В 1 16 км 5/0 1500 м
[Ac und]
+24.6 +24.1 97 +34 +34 очень
душно
1014.6 1010.3 +23.6 +36.0
15 11.08 В 1 16 км ясно +30.0 +21.5 60 +38 +45 очень
душно
1015.7 1011.2
18 11.08 ЮВ 1 16 км ясно +33.4 +22.4 53 +43 +66 опасность
перегрева
1015.6 1011.2 +23.0 +34.0
21 11.08 З 2 16 км 5/0 1500 м
[Ac und]
+35.0 +21.7 46 +43 +54 опасность
перегрева
1013.8 1009.5
00 12.08 З 1 16 км 8/0 1500 м
[Ac und]
+28.6 +24.5 79 +41 +42 опасность
перегрева
1011.7 1007.3 +23.6 +36.8
03 12.08 В 1 16 км ясно +29.4 +21.2 61 +37 +37 очень
душно
1014.0 1009.6
06 12.08 В 1 16 км ясно +27.2 +24.1 83 +38 +38 очень
душно
1015.6 1011.2 +23.6 +36.8
12 12.08 Ю 1 16 км ясно +26.2 +25.0 93 +37 +37 очень
душно
1015.2 1010.8 +25.5 +36.8
15 12.08 ЮВ 1 16 км 9/0 1500 м
[Ac und]
+28.8 +24.9 79 +41 +44 опасность
перегрева
1016.7 1012.3
18 12.08 В 1 16 км 9/9 1500 м
[Frnb]
+28.2 +22.2 70 +37 +39 очень
душно
1016.6 1012.2 +25.5 +37.7
21 12.08 В 1 16 км 9/9 1500 м
[Frnb]
+26.8 +23.4 82 +36 +38 очень
душно
1015.7 1011.2
00 13.08 В 1 16 км 9/9 1500 м
[Frnb]
+26.8 +23.4 82 +36 +37 очень
душно
1015.7 1011.2
03 13.08 СЗ 2 16 км 5/0 2000 м
[As op]
+27.3 +24.7 86 +39 +39 очень
душно
1014.5 1010.1
06 13.08 штиль 0 16 км 5/0 2000 м
[As op]
+25.2 +24.9 98 +36 +36 очень
душно
1015.1 1010.7 +24.5 +34.1
09 13.08 штиль 0 16 км 5/0 2000 м
[As op]
+23.6 +23.6 100 +32 +32 очень
душно
1015.8 1011.4
12 13.08 СЗ 2 16 км 5/0 2000 м
[As trans]
+23.6 +23.6 100 +32 +32 очень
душно
1015.6 1011.2 +23.3 +34.1
15 13.08 С 2 16 км 3/0 2000 м
[As trans]
+30.3 +23.0 65 +40 +45 очень
душно
1015.9 1011.5
18 13.08 ЮЗ 1 16 км 4/0 2000 м
[As op]
+32.8 +22.3 54 +42 +58 опасность
перегрева
1015.8 1011.4 +22.8 +34.4
21 13.08 З 2 16 км 5/0 2000 м
[Ac und Cs]
+37.0 +21.9 42 +45 +58 опасность
перегрева
1012.4 1008.0
00 14.08 З 2 16 км 5/0 2000 м
[Ac cast]
+34.8 +22.8 50 +45 +46 опасность
перегрева
1011.2 1006.9 +22.8 +37.7
03 14.08 З 2 16 км ясно +29.8 +22.9 67 +40 +40 очень
душно
1012.6 1008.3
06 14.08 штиль 0 16 км ясно +27.7 +24.6 83 +39 +39 очень
душно
1013.6 1009.3 +22.8 +37.7
09 14.08 В 1 16 км ясно +26.0 +24.2 90 +36 +36 очень
душно
1013.0 1008.6
12 14.08 В 1 16 км ясно +25.2 +24.4 95 +35 +35 очень
душно
1013.1 1008.7 +25.0 +37.7
15 14.08 В 1 16 км ясно +30.6 +23.8 67 +42 +49 опасность
перегрева
1013.7 1009.3
18 14.08 В 1 16 км ясно +33.2 +23.4 57 +44 +67 опасность
перегрева
1013.8 1009.4 +24.4 +37.7
21 14.08 Ю 2 16 км 5/0 2000 м
[As trans]
+31.9 +24.8 66 +45 +57 опасность
перегрева
1011.8 1007.4
00 15.08 Ю 2 16 км 5/0 2000 м
[As trans]
+32.2 +24.1 62 +44 +46 опасность
перегрева
1011.0 1006.6 +24.4 +34.8
03 15.08 В 2 16 км 8/0 2000 м
[As trans]
+25.8 +23.9 89 +35 +35 очень
душно
1013.0 1008.6
06 15.08 В 1 16 км 8/0
[As trans]
+25.2 +24.1 94 +35 +35 очень
душно
1013.7 1009.3 +34.8

 

Местоположение метеостанции Culiacan (Мексика): широта 24.80 долгота -107.40 высота над уровнем моря 39 м.

В архиве по умолчанию представлена погода в Culiacan за последнюю неделю. Архивные данные за месяц целиком и за предыдущие месяцы, начиная с января 2011 года, Вы можете получить, выбрав интересующий диапазон дат из раскрывающегося списка и нажав кнопку "Ввод!".


*Определитесь, кто Вы:
робот инопланетянин человек

Внимание! Время в таблицах - всемирное. Для получения местного времени необходимо прибавить поправку, которая в Culiacan равна -7 ч.

Смотрите также архив погоды в соседних городах и на ближайших метеорологических станциях:

Погода в Tepehuanes (Мексика) (180 км)
Погода в Mazatlan (Мексика) (205 км)
Погода в Choix (Мексика) (229 км)
Погода в Durango (Мексика) (296 км)
Погода в Hidalgo del Parral (Мексика) (298 км)
Погода в La Paz (Мексика) (302 км)
Погода в Ciudad Obregon (Мексика) (377 км)
Погода в Sombrerete (Мексика) (407 км)
Погода в Torreon (Мексика) (411 км)
Погода в Loreto (Мексика) (415 км)

Пояснения к столбцам:

Ветер - указаны скорость ветра в м/с - средняя за 10 мин, порывы в срок и между сроками (в фигурных скобках) и направление, откуда дует ветер: С - северный, СВ - северо-восточный, В - восточный, ЮВ - юго-восточный, Ю - южный, ЮЗ - юго-западный, З - западный, СЗ - северо-западный.
Видимость - горизонтальная дальность видимости в метрах или километрах. При видимости от 1 до 10 км при отсутствии осадков обычно наблюдается дымка, при ухудшении видимости до 1 км и менее - туман. В сухую погоду видимость может ухудшаться дымом, пылью или мглою.
Явления - указаны атмосферные явления, наблюдавшиеся в срок или в последний час перед сроком; фигурными скобками обозначены явления, наблюдавшиеся между сроками (за 1-3 часа до срока); квадратными скобками обозначены град или гололедные отложения с указанием их диаметра в мм.
Облачность - указаны через наклонную черту общая и нижняя облачность в баллах и высота нижней границы облаков в метрах; квадратными скобками обозначены формы облаков: Ci - перистые, Cs - перисто-слоистые, Cc - перисто-кучевые, Ac - высококучевые, As - высокослоистые, Sc - слоисто-кучевые, Ns - слоисто-дождевые, Cu - кучевые, Cb - кучево-дождевые. Подробнее классификацию облаков см. в Атласе облаков (PDF).
T - Температура воздуха - температура, измеренная на высоте 2 м над землей.
Td - Температура точки росы - температура, при понижении до которой содержащийся в воздухе водяной пар достигнет насыщения.
f - Относительная влажность воздуха - влажноcть воздуха, измеренная на высоте 2 м над землей.
Te - Эффективная температура - температура, которую ощущает одетый по сезону человек в тени. Характеристика душности погоды. При расчете учитывается влияние влажности воздуха и скорости ветра на теплоощущения человека.
Tes - Эффективная температура на солнце - температура, которую ощущает человек, с поправкой на солнечный нагрев. Характеристика знойности погоды. Зависит от высоты солнца над горизонтом, облачности и скорости ветра. Ночью, в пасмурную погоду, а также при ветре 12 м/с и более поправка равна нулю.
P - Атмосферное давление - приведенное к уровню моря атмосферное давление.
Po - Атмосферное давление - измеренное на уровне метеостанции атмосферное давление.
Tmin - Минимальная температура - минимум температуры воздуха на высоте 2 м над землей.
Tmax - Максимальная температура - максимум температуры воздуха на высоте 2 м над землей.
R - Количество осадков - Количество выпавших осадков за период времени, мм. При наведении курсора мыши на число - период времени, за который выпало указанное количество осадков.
R24 - Количество осадков - Количество выпавших осадков за 24 часа, мм.
S - Снежный покров - Высота снежного покрова, см. При наведении курсора мыши на число - состояние снежного покрова и степень покрытия местности в баллах.